Dickinson, ND

9:46 AM MST on February 27, 2017 (GMT -0700)
Dickinson Municipal

Weather History for KDIK - November, 2013

Change the Weather History Date:

Friday, November 29, 2013

  Actual Average Record
Temperature  
Mean Temperature 32 °F 23 °F  
Max Temperature 49 °F 33 °F 62 °F (1909)
Min Temperature 15 °F 13 °F -23 °F (1896)
Degree Days  
Heating Degree Days 33 42  
Month to date heating degree days 1026 1022  
Since 1 July heating degree days 1907 2033  
Cooling Degree Days 0 0  
Month to date cooling degree days 0 0  
Year to date cooling degree days 386 419  
Moisture  
Dew Point 20 °F    
Average Humidity 64    
Maximum Humidity 88    
Minimum Humidity 39    
Precipitation  
Precipitation 0.00 in 0.01 in 0.10 in (1925)
Month to date precipitation 0.06 0.53  
Year to date precipitation 21.00 15.52  
Sea Level Pressure  
Sea Level Pressure 30.04 in    
Wind  
Wind Speed 12 mph (WSW)    
Max Wind Speed 21 mph    
Max Gust Speed 26 mph    
Visibility 10 miles    
Events      
T = Trace of Precipitation, MM = Missing Value Source: NWS Daily Summary

Daily Weather History Graph

Daily Weather History Graph

Search for Another Location

Airport or City:

Trip Planner

Search our weather history database for the weather conditions in past years. The results will help you decide how hot, cold, wet, or windy it might be!

Date:

Astronomy

Nov. 29, 2013 Rise Set
Actual Time 7:13 AM MST 4:05 PM MST
Civil Twilight 6:39 AM MST 4:39 PM MST
Nautical Twilight 6:01 AM MST 5:17 PM MST
Astronomical Twilight 5:24 AM MST 5:54 PM MST
Moon 3:09 AM MST (11/29) 2:02 PM MST (11/29)
Length of Visible Light 10h 00m
Length of Day
8h 52m
Waning Crescent, 13% of the Moon is Illuminated
Nov 29
Waning Crescent
Dec 2
New
Dec 9
First Quarter
Dec 17
Full
Dec 25
Last Quarter

Hourly Weather History & Observations

Time (MST) Temp. Windchill Dew Point Humidity Pressure Visibility Wind Dir Wind Speed Gust Speed Precip Events Conditions
12:56 AM 19.0 °F 4.5 °F 14.0 °F 81% 30.12 in 10.0 mi South 16.1 mph - N/A   Clear
1:56 AM 18.0 °F 1.7 °F 14.0 °F 84% 30.09 in 10.0 mi South 19.6 mph - N/A   Clear
2:56 AM 18.0 °F 3.6 °F 14.0 °F 84% 30.09 in 10.0 mi South 15.0 mph - N/A   Clear
3:56 AM 17.1 °F 7.6 °F 14.0 °F 88% 30.08 in 10.0 mi South 6.9 mph - N/A   Clear
4:56 AM 16.0 °F 4.4 °F 12.9 °F 88% 30.06 in 10.0 mi South 9.2 mph - N/A   Clear
5:56 AM 16.0 °F 6.3 °F 12.0 °F 84% 30.07 in 10.0 mi South 6.9 mph - N/A   Clear
6:56 AM 15.1 °F 4.2 °F 12.0 °F 88% 30.05 in 10.0 mi South 8.1 mph - N/A   Clear
7:56 AM 19.0 °F 11.1 °F 15.1 °F 85% 30.05 in 10.0 mi SSW 5.8 mph - N/A   Clear
8:56 AM 28.9 °F 21.1 °F 23.0 °F 78% 30.04 in 10.0 mi West 8.1 mph - N/A   Clear
9:56 AM 37.9 °F 29.6 °F 26.1 °F 62% 30.02 in 10.0 mi West 13.8 mph - N/A   Clear
10:56 AM 44.1 °F 37.4 °F 26.1 °F 49% 29.99 in 10.0 mi West 13.8 mph - N/A   Clear
11:56 AM 44.1 °F 37.1 °F 25.0 °F 47% 29.99 in 10.0 mi WNW 15.0 mph - N/A   Clear
12:56 PM 48.0 °F - 25.0 °F 41% 29.98 in 10.0 mi West 11.5 mph - N/A   Clear
1:56 PM 48.9 °F - 25.0 °F 39% 29.97 in 10.0 mi West 15.0 mph - N/A   Clear
2:56 PM 46.9 °F - 25.0 °F 42% 29.98 in 10.0 mi West 12.7 mph - N/A   Clear
3:56 PM 39.0 °F 34.0 °F 23.0 °F 53% 30.00 in 10.0 mi West 6.9 mph - N/A   Clear
4:56 PM 34.0 °F 28.0 °F 21.9 °F 61% 30.04 in 10.0 mi North 6.9 mph - N/A   Clear
5:56 PM 34.0 °F 28.8 °F 23.0 °F 64% 30.05 in 10.0 mi WNW 5.8 mph - N/A   Clear
6:56 PM 32.0 °F 26.4 °F 24.1 °F 73% 30.06 in 10.0 mi North 5.8 mph - N/A   Clear
7:56 PM 24.1 °F - 19.0 °F 81% 30.07 in 10.0 mi Calm Calm - N/A   Clear
8:56 PM 26.1 °F 19.4 °F 21.0 °F 81% 30.06 in 10.0 mi WSW 5.8 mph - N/A   Clear
9:56 PM 28.9 °F 21.1 °F 23.0 °F 78% 30.04 in 10.0 mi WNW 8.1 mph - N/A   Clear
10:56 PM 26.1 °F 19.4 °F 21.0 °F 81% 30.05 in 10.0 mi NW 5.8 mph - N/A   Clear
11:56 PM 23.0 °F 17.0 °F 19.0 °F 85% 30.07 in 10.0 mi WNW 4.6 mph - N/A   Clear